DFJOE LFBL-EDLI

Flight info

Callsign DFJOE
Flight time 1h 2m
Altitude 19000
Route MOTAL/N0257F190 IFR R11 OSKIN T11 LUREN B373 TRO G40 VATRI B3 DIKOL J10 SUIPE M163 MMD Y180 DIK/N0257F240 N853 ARCKY/N0259F240 T853 NVO M170 BAMSU/N0259F230 M170 PADBA/N0260F210 M170 BARAG/N0259F190 M170 ADEMI/N0180VFR VFR
Aircraft P46T/L-SBDGRY/E

Departure

Time 2026-05-07 17:44
Airport Limoges Airport (LFBL)

Arrival

Time 2026-05-07 18:46
Airport Bielefeld Airport (EDLI)
Time Latitude Longitude Altitude Speed Heading
2026-05-07 17:35 45.86326 1.17920 1305 ft 0 kts 32°
2026-05-07 17:41 45.86326 1.17921 1305 ft 1 kts 32°
2026-05-07 17:42 45.86323 1.17945 1305 ft 7 kts 190°
2026-05-07 17:42 45.86254 1.17885 1304 ft 14 kts 214°
2026-05-07 17:42 45.86163 1.17851 1303 ft 14 kts 143°
2026-05-07 17:42 45.86107 1.17965 1303 ft 15 kts 123°
2026-05-07 17:43 45.86218 1.18156 1304 ft 50 kts 30°
2026-05-07 17:43 45.86645 1.18550 1320 ft 94 kts 35°
2026-05-07 17:43 45.87257 1.19134 1543 ft 112 kts 36°
2026-05-07 17:43 45.88034 1.19613 1759 ft 134 kts 20°
2026-05-07 17:44 45.88952 1.20112 2070 ft 143 kts 24°
2026-05-07 17:44 45.89871 1.20652 2533 ft 143 kts 24°
2026-05-07 17:44 45.90792 1.21196 3004 ft 144 kts 25°
2026-05-07 17:44 45.91731 1.21751 3490 ft 147 kts 25°
2026-05-07 17:45 45.92686 1.22311 3983 ft 148 kts 25°
2026-05-07 17:45 45.93645 1.22871 4459 ft 149 kts 25°
2026-05-07 17:45 45.94612 1.23437 4915 ft 153 kts 25°
2026-05-07 17:45 45.95605 1.24016 5350 ft 154 kts 25°
2026-05-07 17:46 45.98691 1.25828 6571 ft 160 kts 25°
2026-05-07 17:46 46.02890 1.28289 8123 ft 165 kts 24°
2026-05-07 17:46 46.07242 1.30846 9688 ft 172 kts 23°
2026-05-07 17:46 46.11729 1.33487 11161 ft 176 kts 22°
2026-05-07 17:47 46.16505 1.36303 12788 ft 181 kts 21°
2026-05-07 17:47 46.26117 1.41983 15516 ft 191 kts 22°
2026-05-07 17:47 46.36258 1.48004 18149 ft 202 kts 24°
2026-05-07 17:47 46.47819 1.54916 18987 ft 254 kts 23°
2026-05-07 17:48 46.59860 1.62092 18987 ft 263 kts 22°
2026-05-07 17:48 46.71048 1.68831 18997 ft 262 kts 22°
2026-05-07 17:48 46.84553 1.76998 19002 ft 263 kts 22°
2026-05-07 17:48 46.98057 1.85212 19001 ft 262 kts 22°
2026-05-07 17:49 47.11522 1.93440 18993 ft 262 kts 22°
2026-05-07 17:49 47.24839 2.01622 18993 ft 262 kts 22°
2026-05-07 17:49 47.38266 2.09939 18990 ft 261 kts 21°
2026-05-07 17:49 47.51683 2.18262 18992 ft 260 kts 21°
2026-05-07 17:50 47.59900 2.33251 18998 ft 257 kts 100°
2026-05-07 17:50 47.61600 2.54349 19005 ft 261 kts 84°
2026-05-07 17:50 47.64113 2.75782 19009 ft 264 kts 80°
2026-05-07 17:50 47.66638 2.97224 19003 ft 264 kts 81°
2026-05-07 17:51 47.69087 3.18578 19007 ft 264 kts 81°
2026-05-07 17:51 47.71533 3.40288 19010 ft 265 kts 81°
2026-05-07 17:51 47.80357 3.56265 19018 ft 262 kts 51°
2026-05-07 17:51 47.90254 3.72076 19023 ft 262 kts 45°
2026-05-07 17:52 48.00339 3.87831 19031 ft 263 kts 44°
2026-05-07 17:52 48.12868 3.93255 19049 ft 254 kts
2026-05-07 17:52 48.26786 3.96741 19051 ft 255 kts
2026-05-07 17:52 48.40686 4.01265 19045 ft 256 kts
2026-05-07 17:53 48.54590 4.05714 19044 ft 256 kts
2026-05-07 17:53 48.68442 4.06073 19052 ft 251 kts 356°
2026-05-07 17:53 48.82442 4.05761 19056 ft 252 kts 354°
2026-05-07 17:53 48.96489 4.05374 19043 ft 252 kts 355°
2026-05-07 17:54 49.10499 4.05003 19052 ft 252 kts 355°
2026-05-07 17:54 49.20388 4.17732 19048 ft 264 kts 59°
2026-05-07 17:54 49.26908 4.36421 19047 ft 262 kts 85°
2026-05-07 17:54 49.30438 4.58103 19044 ft 264 kts 76°
2026-05-07 17:55 49.34008 4.79991 19040 ft 264 kts 76°
2026-05-07 17:55 49.37474 5.01886 19045 ft 264 kts 76°
2026-05-07 17:55 49.41361 5.18019 19041 ft 256 kts 42°
2026-05-07 17:55 49.42615 5.19862 19102 ft 255 kts 46°
2026-05-07 17:56 49.43764 5.21990 19049 ft 258 kts 53°
2026-05-07 17:56 49.44779 5.24268 19045 ft 258 kts 54°
2026-05-07 17:56 49.45810 5.26525 19052 ft 258 kts 52°
2026-05-07 17:56 49.46849 5.28693 19052 ft 258 kts 52°
2026-05-07 17:57 49.47914 5.30914 19050 ft 258 kts 52°
2026-05-07 17:57 49.48629 5.32424 19052 ft 259 kts 52°
2026-05-07 17:57 49.50035 5.35403 19055 ft 260 kts 52°
2026-05-07 17:57 49.51100 5.37652 19049 ft 260 kts 52°
2026-05-07 17:58 49.52175 5.39884 19050 ft 258 kts 47°
2026-05-07 17:58 49.53571 5.41502 19269 ft 244 kts 26°
2026-05-07 17:58 49.55044 5.42681 19627 ft 233 kts 24°
2026-05-07 17:58 49.56459 5.43820 19983 ft 226 kts 26°
2026-05-07 17:59 49.57788 5.45053 20343 ft 221 kts 29°
2026-05-07 17:59 49.59075 5.46293 20709 ft 216 kts 28°
2026-05-07 17:59 49.60344 5.47494 21081 ft 212 kts 28°
2026-05-07 17:59 49.61590 5.48664 21457 ft 208 kts 28°
2026-05-07 18:00 49.62803 5.49805 21841 ft 205 kts 28°
2026-05-07 18:00 49.64014 5.50948 22228 ft 203 kts 28°
2026-05-07 18:00 49.65210 5.52075 22621 ft 200 kts 28°
2026-05-07 18:00 49.66395 5.53193 23016 ft 199 kts 28°
2026-05-07 18:01 49.67626 5.54353 23052 ft 216 kts 28°
2026-05-07 18:01 49.68945 5.55603 23060 ft 229 kts 28°
2026-05-07 18:01 49.70335 5.56923 23056 ft 239 kts 28°
2026-05-07 18:01 49.71776 5.58291 23056 ft 247 kts 29°
2026-05-07 18:02 49.74767 5.61128 23061 ft 256 kts 29°
2026-05-07 18:02 49.76292 5.62576 23059 ft 259 kts 29°
2026-05-07 18:02 49.77832 5.64038 23059 ft 260 kts 29°
2026-05-07 18:03 49.79379 5.65510 23057 ft 262 kts 29°
2026-05-07 18:03 49.80913 5.66969 23059 ft 263 kts 29°
2026-05-07 18:03 49.82472 5.68453 23059 ft 263 kts 29°
2026-05-07 18:03 49.84033 5.69939 23056 ft 264 kts 29°
2026-05-07 18:04 49.85596 5.71432 23056 ft 264 kts 30°
2026-05-07 18:04 49.87161 5.72932 23057 ft 265 kts 30°
2026-05-07 18:04 49.88736 5.74435 23057 ft 265 kts 29°
2026-05-07 18:04 49.90305 5.75931 23058 ft 265 kts 29°
2026-05-07 18:05 49.91880 5.77438 23061 ft 265 kts 30°
2026-05-07 18:05 49.93451 5.78942 23061 ft 265 kts 30°
2026-05-07 18:05 49.95020 5.80446 23062 ft 265 kts 30°
2026-05-07 18:05 49.96592 5.81952 23062 ft 265 kts 30°
2026-05-07 18:06 49.98164 5.83459 23061 ft 266 kts 30°
2026-05-07 18:06 49.99735 5.84967 23061 ft 265 kts 30°
2026-05-07 18:06 50.01305 5.86476 23062 ft 266 kts 30°
2026-05-07 18:06 50.02875 5.87986 23062 ft 265 kts 30°
2026-05-07 18:07 50.04448 5.89500 23064 ft 265 kts 30°
2026-05-07 18:07 50.06018 5.91011 23064 ft 266 kts 30°
2026-05-07 18:07 50.07569 5.92506 23064 ft 265 kts 30°
2026-05-07 18:07 50.09141 5.94022 23061 ft 265 kts 30°
2026-05-07 18:08 50.10712 5.95538 23055 ft 266 kts 30°
2026-05-07 18:08 50.12283 5.97056 23054 ft 266 kts 30°
2026-05-07 18:08 50.13854 5.98574 23054 ft 265 kts 30°
2026-05-07 18:08 50.15427 6.00094 23055 ft 266 kts 30°
2026-05-07 18:09 50.16996 6.01614 23054 ft 266 kts 30°
2026-05-07 18:09 50.18570 6.03141 23051 ft 266 kts 30°
2026-05-07 18:09 50.20143 6.04668 23051 ft 266 kts 30°
2026-05-07 18:09 50.21717 6.06193 23051 ft 266 kts 30°
2026-05-07 18:10 50.23288 6.07719 23049 ft 266 kts 30°
2026-05-07 18:10 50.24858 6.09247 23049 ft 266 kts 30°
2026-05-07 18:10 50.26435 6.10780 23062 ft 267 kts 30°
2026-05-07 18:10 50.28008 6.12311 23062 ft 266 kts 30°
2026-05-07 18:11 50.29582 6.13848 23060 ft 267 kts 30°
2026-05-07 18:11 50.30624 6.14862 23060 ft 265 kts 30°
2026-05-07 18:11 50.32703 6.16893 23059 ft 265 kts 30°
2026-05-07 18:11 50.34270 6.18423 23059 ft 266 kts 30°
2026-05-07 18:12 50.35837 6.19952 23059 ft 265 kts 30°
2026-05-07 18:12 50.37406 6.21484 23059 ft 266 kts 30°
2026-05-07 18:12 50.38972 6.23019 23060 ft 265 kts 30°
2026-05-07 18:12 50.40536 6.24555 23059 ft 264 kts 30°
2026-05-07 18:13 50.42097 6.26087 23055 ft 265 kts 30°
2026-05-07 18:13 50.43659 6.27614 23052 ft 264 kts 30°
2026-05-07 18:13 50.45215 6.29146 23052 ft 264 kts 30°
2026-05-07 18:13 50.46771 6.30671 23051 ft 264 kts 30°
2026-05-07 18:14 50.48333 6.32206 23053 ft 265 kts 30°
2026-05-07 18:14 50.49905 6.33721 23054 ft 265 kts 27°
2026-05-07 18:14 50.51508 6.35159 23056 ft 265 kts 28°
2026-05-07 18:14 50.53093 6.36648 23062 ft 266 kts 29°
2026-05-07 18:15 50.54686 6.38130 23063 ft 265 kts 28°
2026-05-07 18:15 50.56262 6.39569 23064 ft 265 kts 28°
2026-05-07 18:15 50.57859 6.41035 23064 ft 265 kts 28°
2026-05-07 18:15 50.59448 6.42502 23060 ft 265 kts 28°
2026-05-07 18:16 50.61033 6.43961 23056 ft 264 kts 28°
2026-05-07 18:16 50.62622 6.45424 23054 ft 264 kts 28°
2026-05-07 18:16 50.64209 6.46893 23055 ft 264 kts 28°
2026-05-07 18:16 50.65794 6.48365 23056 ft 264 kts 28°
2026-05-07 18:17 50.67382 6.49826 23054 ft 265 kts 28°
2026-05-07 18:17 50.68972 6.51299 23056 ft 265 kts 28°
2026-05-07 18:17 50.70020 6.52269 23058 ft 264 kts 28°
2026-05-07 18:17 50.71607 6.53740 23058 ft 264 kts 28°
2026-05-07 18:18 50.73191 6.55211 23055 ft 264 kts 28°
2026-05-07 18:18 50.74778 6.56684 23049 ft 265 kts 28°
2026-05-07 18:18 50.76371 6.58163 23052 ft 265 kts 28°
2026-05-07 18:18 50.77955 6.59636 23052 ft 264 kts 28°
2026-05-07 18:19 50.79376 6.61476 23048 ft 267 kts 46°
2026-05-07 18:19 50.80558 6.63776 22915 ft 272 kts 51°
2026-05-07 18:19 50.81727 6.66157 22783 ft 275 kts 50°
2026-05-07 18:19 50.82990 6.68455 22651 ft 277 kts 46°
2026-05-07 18:20 50.84290 6.70721 22519 ft 279 kts 47°
2026-05-07 18:20 50.85556 6.72990 22390 ft 280 kts 48°
2026-05-07 18:20 50.86832 6.75317 22256 ft 280 kts 48°
2026-05-07 18:20 50.88090 6.77599 22120 ft 279 kts 47°
2026-05-07 18:21 50.89374 6.79918 21988 ft 277 kts 47°
2026-05-07 18:21 50.90628 6.82185 21852 ft 276 kts 47°
2026-05-07 18:21 50.91904 6.84502 21720 ft 275 kts 47°
2026-05-07 18:21 50.93143 6.86750 21590 ft 274 kts 47°
2026-05-07 18:22 50.94394 6.89022 21474 ft 273 kts 47°
2026-05-07 18:22 50.95239 6.90557 21386 ft 273 kts 47°
2026-05-07 18:22 50.96892 6.93566 21215 ft 273 kts 47°
2026-05-07 18:22 50.98139 6.95836 21086 ft 272 kts 47°
2026-05-07 18:23 50.99381 6.98101 20958 ft 272 kts 48°
2026-05-07 18:23 51.00610 7.00343 20831 ft 271 kts 48°
2026-05-07 18:23 51.01837 7.02583 20704 ft 271 kts 48°
2026-05-07 18:23 51.03075 7.04845 20577 ft 271 kts 48°
2026-05-07 18:24 51.04312 7.07107 20451 ft 271 kts 48°
2026-05-07 18:24 51.05545 7.09364 20325 ft 270 kts 48°
2026-05-07 18:24 51.06774 7.11617 20195 ft 270 kts 48°
2026-05-07 18:24 51.07976 7.13820 20071 ft 269 kts 48°
2026-05-07 18:25 51.09204 7.16074 19943 ft 269 kts 48°
2026-05-07 18:25 51.10429 7.18324 19818 ft 269 kts 48°
2026-05-07 18:25 51.11618 7.20510 19708 ft 268 kts 48°
2026-05-07 18:25 51.12797 7.22681 19592 ft 268 kts 48°
2026-05-07 18:26 51.13839 7.24601 19487 ft 267 kts 48°
2026-05-07 18:26 51.15053 7.26837 19364 ft 267 kts 48°
2026-05-07 18:26 51.16249 7.29045 19243 ft 266 kts 48°
2026-05-07 18:26 51.17462 7.31284 19121 ft 266 kts 48°
2026-05-07 18:27 51.18608 7.33403 19005 ft 265 kts 48°
2026-05-07 18:27 51.19811 7.35627 18885 ft 265 kts 48°
2026-05-07 18:27 51.21012 7.37850 18768 ft 264 kts 48°
2026-05-07 18:27 51.22208 7.40068 18651 ft 264 kts 48°
2026-05-07 18:28 51.23406 7.42289 18530 ft 263 kts 48°
2026-05-07 18:28 51.24522 7.44359 18417 ft 263 kts 48°
2026-05-07 18:28 51.25574 7.46152 18313 ft 261 kts 40°
2026-05-07 18:28 51.27085 7.48017 18167 ft 260 kts 36°
2026-05-07 18:29 51.28494 7.49826 18035 ft 260 kts 38°
2026-05-07 18:29 51.29898 7.51642 17901 ft 259 kts 37°
2026-05-07 18:29 51.31314 7.53430 17767 ft 259 kts 37°
2026-05-07 18:29 51.32730 7.55213 17631 ft 258 kts 37°
2026-05-07 18:30 51.34113 7.56966 17501 ft 256 kts 37°
2026-05-07 18:30 51.35509 7.58738 17366 ft 255 kts 37°
2026-05-07 18:30 51.36892 7.60494 17214 ft 255 kts 37°
2026-05-07 18:30 51.38294 7.62274 16911 ft 258 kts 37°
2026-05-07 18:31 51.39692 7.64056 16573 ft 254 kts 37°
2026-05-07 18:31 51.41062 7.65799 16241 ft 251 kts 37°
2026-05-07 18:31 51.42429 7.67538 15913 ft 250 kts 37°
2026-05-07 18:31 51.43786 7.69268 15582 ft 249 kts 37°
2026-05-07 18:32 51.45073 7.70910 15275 ft 247 kts 37°
2026-05-07 18:32 51.46415 7.72622 14952 ft 246 kts 37°
2026-05-07 18:32 51.47748 7.74324 14632 ft 244 kts 37°
2026-05-07 18:32 51.49071 7.76015 14314 ft 242 kts 37°
2026-05-07 18:33 51.50383 7.77694 13996 ft 241 kts 37°
2026-05-07 18:33 51.51687 7.79364 13663 ft 240 kts 37°
2026-05-07 18:33 51.52985 7.81028 13337 ft 238 kts 37°
2026-05-07 18:33 51.54276 7.82681 13026 ft 236 kts 37°
2026-05-07 18:34 51.55554 7.84319 12725 ft 235 kts 37°
2026-05-07 18:34 51.56827 7.85955 12415 ft 234 kts 37°
2026-05-07 18:34 51.58094 7.87584 12109 ft 233 kts 37°
2026-05-07 18:34 51.59357 7.89207 11804 ft 232 kts 37°
2026-05-07 18:35 51.60607 7.90817 11501 ft 231 kts 37°
2026-05-07 18:35 51.61855 7.92426 11200 ft 229 kts 37°
2026-05-07 18:35 51.63066 7.93984 10903 ft 229 kts 37°
2026-05-07 18:35 51.64301 7.95577 10609 ft 226 kts 37°
2026-05-07 18:36 51.65525 7.97156 10316 ft 224 kts 38°
2026-05-07 18:36 51.66735 7.98720 10025 ft 223 kts 37°
2026-05-07 18:36 51.67943 8.00282 9712 ft 222 kts 37°
2026-05-07 18:36 51.69141 8.01829 9415 ft 219 kts 38°
2026-05-07 18:37 51.70327 8.03367 9127 ft 218 kts 37°
2026-05-07 18:37 51.71486 8.04866 8848 ft 216 kts 37°
2026-05-07 18:37 51.72655 8.06379 8567 ft 215 kts 37°
2026-05-07 18:37 51.73815 8.07884 8287 ft 214 kts 38°
2026-05-07 18:38 51.74971 8.09384 8006 ft 212 kts 37°
2026-05-07 18:38 51.76102 8.10853 7729 ft 211 kts 37°
2026-05-07 18:38 51.77235 8.12325 7454 ft 207 kts 38°
2026-05-07 18:38 51.78355 8.13782 7182 ft 202 kts 38°
2026-05-07 18:39 51.79412 8.15157 7099 ft 192 kts 38°
2026-05-07 18:39 51.80420 8.16462 7089 ft 183 kts 38°
2026-05-07 18:39 51.81420 8.17764 6785 ft 190 kts 38°
2026-05-07 18:39 51.82477 8.19150 6266 ft 202 kts 38°
2026-05-07 18:40 51.83568 8.20578 5772 ft 198 kts 38°
2026-05-07 18:40 51.84590 8.21914 5559 ft 183 kts 38°
2026-05-07 18:40 51.85561 8.23176 5334 ft 176 kts 38°
2026-05-07 18:40 51.86503 8.24405 5109 ft 172 kts 38°
2026-05-07 18:41 51.87429 8.25615 4885 ft 170 kts 38°
2026-05-07 18:41 51.88341 8.26809 4661 ft 168 kts 38°
2026-05-07 18:41 51.89248 8.27995 4442 ft 167 kts 39°
2026-05-07 18:41 51.90192 8.29227 4209 ft 186 kts 39°
2026-05-07 18:42 51.91240 8.30599 3934 ft 197 kts 39°
2026-05-07 18:42 51.92296 8.31989 3666 ft 194 kts 39°
2026-05-07 18:42 51.93319 8.33334 3416 ft 184 kts 40°
2026-05-07 18:42 51.94317 8.34643 3175 ft 185 kts 41°
2026-05-07 18:43 51.95317 8.35955 2927 ft 185 kts 41°
2026-05-07 18:43 51.96318 8.37269 2681 ft 185 kts 41°
2026-05-07 18:43 51.97315 8.38581 2437 ft 185 kts 41°
2026-05-07 18:43 51.98198 8.40070 2195 ft 184 kts 58°
2026-05-07 18:44 51.98688 8.41965 1956 ft 183 kts 78°
2026-05-07 18:44 51.98741 8.44019 1728 ft 183 kts 97°
2026-05-07 18:44 51.98377 8.45988 1491 ft 179 kts 111°
2026-05-07 18:44 51.97977 8.47731 1283 ft 158 kts 109°
2026-05-07 18:45 51.97640 8.49266 1086 ft 140 kts 109°
2026-05-07 18:45 51.97331 8.50655 915 ft 120 kts 109°
2026-05-07 18:45 51.97079 8.51779 768 ft 95 kts 108°
2026-05-07 18:45 51.96863 8.52753 614 ft 88 kts 110°
2026-05-07 18:46 51.96650 8.53693 488 ft 90 kts 109°
2026-05-07 18:46 51.96463 8.54534 456 ft 63 kts 109°
2026-05-07 18:46 51.96368 8.54959 458 ft 18 kts 107°
2026-05-07 18:46 51.96433 8.55011 457 ft 16 kts 327°
2026-05-07 18:47 51.96539 8.54921 457 ft 16 kts 54°
2026-05-07 18:47 51.96553 8.55039 457 ft 2 kts 330°